Tracking 31027 objects as of 19-Jul-2025
HD Live streaming from Space Station
objects crossing your sky now

COSMOS 1828

Track COSMOS 1828 now!
10-day predictions
COSMOS 1828 is classified as:


NORAD ID: 17583
Int'l Code: 1987-026B
Perigee: 1,389.0 km
Apogee: 1,419.7 km
Inclination: 82.6 °
Period: 113.7 minutes
Semi major axis: 7775 km
RCS: 1.1912 m2 (large)
Launch date: March 13, 1987
Source: Commonwealth of Independent States (former USSR) (CIS)
Launch site: PLESETSK MISSILE AND SPACE COMPLEX (PKMTR)
Your satellite tracking list
LANDSAT 5
Track 1 satellite(s)




NASA's NSSDC Master Catalog

Two Line Element Set (TLE):
1 17583U 87026B   25199.51919802  .00000030  00000-0  10384-3 0  9990
2 17583  82.5664  20.7768 0019759 111.6068 302.3111 12.66259850772316
Source of the keplerian elements: AFSPC